"2009-06-26 00:00:00",1008302,9.87,242.9,1.228,0.253,20.08,108.6669,21.47,22.77,60.01,0,111,13.18,22.30,204.9
"2009-06-26 00:00:30",1008303,9.83,241,1.33,0.414,20.1,108.6378,21.4,22.69,59.41,0,110.9,13.18,22.22,203.0
"2009-06-26 00:01:00",1008304,10.22,239.8,1.214,0.286,20.11,108.6074,21.32,22.61,59.51,0,110.9,13.19,22.14,201.8
"2009-06-26 00:01:30",1008305,10.23,243.2,2.233,0.278,20.08,108.5794,21.25,22.54,59.56,0,110.9,13.19,22.07,205.2
"2009-06-26 00:02:00",1008306,10.42,243.5,3.113,0.29,20.21,108.5495,21.17,22.47,59.4,0,110.9,13.19,22.00,205.5
"2009-06-26 00:02:30",1008307,9.76,242,3.016,0.368,20.24,108.5339,21.13,22.42,58.95,0,110.9,13.19,21.96,204.0
"2009-06-26 00:03:00",1008308,9.6,242.4,2.91,0.368,20.25,108.5079,21.06,22.33,58.41,0,110.9,13.19,21.89,204.4
"2009-06-26 00:03:30",1008309,9.55,237.5,2.389,0.361,20.36,108.4913,21.02,22.27,57.73,0,110.9,13.19,21.85,199.5
"2009-06-26 00:04:00",1008310,9.8,242.8,2.212,0.125,20.28,108.4837,21,22.22,58.18,0,110.9,13.19,21.83,204.8
"2009-06-26 00:04:30",1008311,10.36,245.6,1.585,0.201,20.25,108.4728,20.97,22.16,59.27,0,110.9,13.19,21.80,207.6
"2009-06-26 00:05:00",1008312,11.02,245.5,0.762,0.115,20.22,108.4588,20.94,22.11,59.67,0,110.9,13.19,21.76,207.5
"2009-06-26 00:05:30",1008313,11.02,244.4,1.526,0.131,20.26,108.4588,20.94,22.08,59.79,0,110.9,13.19,21.76,206.4
"2009-06-26 00:06:00",1008314,10.66,241.3,0.582,0.191,20.32,108.4409,20.89,22.03,59.46,0,110.9,13.19,21.72,203.3
"2009-06-26 00:06:30",1008315,10.2,240.1,0.682,0.101,20.32,108.426,20.85,22,58.42,0,110.9,13.19,21.68,202.1
"2009-06-26 00:07:00",1008316,9.83,240.3,0.568,0.185,20.3,108.4266,20.85,21.98,58.18,0,110.9,13.19,21.68,202.3
"2009-06-26 00:07:30",1008317,9.88,239.4,1.079,0.132,20.37,108.4281,20.86,21.93,57.74,0,110.9,13.19,21.68,201.4
"2009-06-26 00:08:00",1008318,9.83,239.8,1.099,0.186,20.39,108.4297,20.86,21.92,57.38,0,110.9,13.19,21.69,201.8
"2009-06-26 00:08:30",1008319,9.48,238,1.721,0.184,20.51,108.433,20.87,21.89,55.65,0,110.9,13.19,21.70,200.0
"2009-06-26 00:09:00",1008320,9.83,240.4,1.201,0.283,20.3,108.4339,20.87,21.88,55.67,0,110.9,13.19,21.70,202.4
"2009-06-26 00:09:30",1008321,10.14,241.2,1.283,0.088,20.31,108.4342,20.87,21.87,57.21,0,110.9,13.19,21.70,203.2
"2009-06-26 00:10:00",1008322,9.86,238,1.165,0.163,20.32,108.4345,20.87,21.87,56,0,110.9,13.2,21.70,200.0
"2009-06-26 00:10:30",1008323,10.18,238.7,0.824,0.072,20.28,108.4345,20.87,21.87,55.29,0,110.9,13.2,21.70,200.7
"2009-06-26 00:11:00",1008324,10.24,239.4,0.981,0.186,20.31,108.4345,20.87,21.86,55.33,0,110.9,13.19,21.70,201.4
"2009-06-26 00:11:30",1008325,10.5,241.5,1.872,0.299,20.33,108.4345,20.87,21.87,54.24,0,110.9,13.19,21.70,203.5
"2009-06-26 00:12:00",1008326,10.64,242.9,1.228,0.247,20.41,108.4345,20.87,21.86,53.37,0,110.9,13.19,21.70,204.9
"2009-06-26 00:12:30",1008327,10.91,242.6,1.803,0.243,20.39,108.4348,20.88,21.86,52.68,0,110.9,13.19,21.70,204.6
"2009-06-26 00:13:00",1008328,10.32,242.5,2.206,0.394,20.43,108.4404,20.89,21.87,52.38,0,110.9,13.19,21.71,204.5
"2009-06-26 00:13:30",1008329,10.83,246.6,2.663,0.347,20.4,108.4542,20.93,21.87,51.73,0,110.9,13.19,21.75,208.6
"2009-06-26 00:14:00",1008330,10.76,246,2.188,0.322,20.33,108.468,20.96,21.88,53.28,0,110.9,13.19,21.79,208.0
"2009-06-26 00:14:30",1008331,10.94,246.5,1.832,0.259,20.34,108.4683,20.96,21.89,53.08,0,110.9,13.19,21.79,208.5
"2009-06-26 00:15:00",1008332,10.6,247.4,1.968,0.307,20.39,108.4683,20.96,21.92,52.97,0,110.9,13.19,21.79,209.4
"2009-06-26 00:15:30",1008333,9.91,241.9,2.43,0.189,20.56,108.4702,20.97,21.92,50.82,0,110.9,13.19,21.79,203.9
"2009-06-26 00:16:00",1008334,9.42,241.3,3.327,0.298,20.59,108.4812,20.99,21.94,48.31,0,110.9,13.19,21.82,203.3
"2009-06-26 00:16:30",1008335,9.69,244.8,1.969,0.188,20.36,108.5,21.04,21.94,50.91,0,110.9,13.2,21.87,206.8
"2009-06-26 00:17:00",1008336,9.57,244.6,1.022,0.156,20.39,108.502,21.05,21.95,50.73,0,110.9,13.2,21.87,206.6
"2009-06-26 00:17:30",1008337,9.74,245.3,2.109,0.306,20.35,108.502,21.05,21.99,51.02,0,110.9,13.2,21.87,207.3
"2009-06-26 00:18:00",1008338,9.89,246.2,1.589,0.228,20.33,108.504,21.05,22,51.31,0,110.9,13.2,21.88,208.2
"2009-06-26 00:18:30",1008339,10.09,246.9,1.551,0.306,20.29,108.5135,21.08,22.01,52.29,0,110.9,13.2,21.90,208.9
"2009-06-26 00:19:00",1008340,10.14,248.1,1.182,0.4,20.31,108.5273,21.11,22.02,52.75,0,110.9,13.2,21.94,210.1
"2009-06-26 00:19:30",1008341,10.59,247.9,1.299,0.182,20.25,108.5352,21.13,22.05,53.31,0,110.9,13.2,21.96,209.9
"2009-06-26 00:20:00",1008342,10.51,247.9,1.31,0.262,20.31,108.5361,21.14,22.06,53.57,0,110.9,13.2,21.96,209.9
"2009-06-26 00:20:30",1008343,9.76,247.6,0.834,0.269,20.4,108.5364,21.14,22.08,53.22,0,110.9,13.2,21.96,209.6
"2009-06-26 00:21:00",1008344,10.04,247.4,0.89,0.371,20.37,108.5373,21.14,22.07,52.51,0,110.9,13.2,21.96,209.4
"2009-06-26 00:21:30",1008345,10.06,248.5,0.709,0.137,20.37,108.54,21.15,22.1,52.51,0,110.9,13.2,21.97,210.5
"2009-06-26 00:22:00",1008346,9.95,248.5,0.906,0.266,20.41,108.5394,21.14,22.1,51.95,0,110.9,13.2,21.97,210.5
"2009-06-26 00:22:30",1008347,10.83,249,1.164,0.293,20.27,108.5415,21.15,22.11,52.57,0,110.9,13.2,21.97,211.0
"2009-06-26 00:23:00",1008348,10.99,249.1,0.852,0.287,20.16,108.5406,21.15,22.1,53.38,0,110.9,13.2,21.97,211.1
"2009-06-26 00:23:30",1008349,11.5,248,0.947,0.206,20.26,108.5403,21.15,22.13,53.79,0,110.9,13.2,21.97,210.0
"2009-06-26 00:24:00",1008350,11.12,247.1,0.661,0.278,20.28,108.5419,21.15,22.11,53.79,0,110.9,13.2,21.98,209.1
"2009-06-26 00:24:30",1008351,11.26,247.9,0.908,0.246,20.32,108.5359,21.13,22.12,53.66,0,110.9,13.2,21.96,209.9
"2009-06-26 00:25:00",1008352,11.31,247.2,0.611,0.213,20.31,108.5232,21.1,22.11,53.48,0,110.9,13.2,21.93,209.2
"2009-06-26 00:25:30",1008353,10.72,246.2,0.626,0.121,20.55,108.5185,21.09,22.09,52.91,0,110.9,13.2,21.92,208.2
"2009-06-26 00:26:00",1008354,11.36,244.9,0.755,0.319,20.47,108.5216,21.1,22.08,52.23,0,110.9,13.2,21.92,206.9
"2009-06-26 00:26:30",1008355,11.47,244.5,0.611,0.084,20.44,108.5231,21.1,22.07,50.61,0,110.9,13.2,21.93,206.5
"2009-06-26 00:27:00",1008356,11.76,244.2,0.775,0.105,20.36,108.5163,21.08,22.05,49.72,0,110.9,13.2,21.91,206.2
"2009-06-26 00:27:30",1008357,11.78,246,0.69,0.13,20.34,108.4998,21.04,22.04,47.98,0,110.9,13.2,21.87,208.0
"2009-06-26 00:28:00",1008358,11.52,246.6,0.658,0.096,20.42,108.4957,21.03,22.03,46.02,0,110.9,13.2,21.86,208.6
"2009-06-26 00:28:30",1008359,11.27,247,0.637,0.127,20.54,108.4988,21.04,22.01,45.41,0,110.9,13.2,21.86,209.0
"2009-06-26 00:29:00",1008360,11.4,246.9,0.885,0.135,20.41,108.5018,21.05,22,47.43,0,110.9,13.2,21.87,208.9
"2009-06-26 00:29:30",1008361,11.78,246.8,1.001,0.2,20.23,108.5028,21.05,22,50.52,0,110.9,13.2,21.88,208.8
"2009-06-26 00:30:00",1008362,11.81,245.2,0.565,0.098,20.52,108.504,21.05,22,50.16,0,110.9,13.2,21.88,207.2
"2009-06-26 00:30:30",1008363,11.63,244.4,1.303,0.113,20.46,108.5049,21.06,22,48.99,0,110.9,13.2,21.88,206.4
"2009-06-26 00:31:00",1008364,11.77,245.4,1.333,0.264,20.35,108.5046,21.05,22,49.77,0,110.9,13.2,21.88,207.4
"2009-06-26 00:31:30",1008365,11.83,246.5,0.877,0.143,20.2,108.5049,21.06,22.01,51.84,0,110.9,13.2,21.88,208.5
"2009-06-26 00:32:00",1008366,11.74,248.9,1.264,0.098,19.84,108.5049,21.06,22.02,53.16,0,110.9,13.2,21.88,210.9
"2009-06-26 00:32:30",1008367,12.06,251.1,0.597,0.149,19.74,108.5049,21.06,22.01,54.07,0,110.9,13.2,21.88,213.1
"2009-06-26 00:33:00",1008368,12.02,251.4,0.425,0.055,19.8,108.5021,21.05,22.01,53.9,0,110.9,13.2,21.87,213.4
"2009-06-26 00:33:30",1008369,12.07,251.3,0.476,0.166,19.79,108.4756,20.98,22,54.45,0,110.9,13.21,21.81,213.3
"2009-06-26 00:34:00",1008370,12.31,249.6,0.93,0.22,19.84,108.4711,20.97,21.97,54.39,0,110.9,13.21,21.79,211.6
"2009-06-26 00:34:30",1008371,12.77,246.5,0.72,0.199,19.9,108.4588,20.94,21.97,54.39,0,110.9,13.21,21.76,208.5
"2009-06-26 00:35:00",1008372,12.66,242.8,1.093,0.12,19.78,108.4374,20.88,21.93,50.4,0,110.9,13.21,21.71,204.8
"2009-06-26 00:35:30",1008373,12.74,242.9,0.722,0.141,19.77,108.4301,20.86,21.9,46.88,0,110.9,13.21,21.69,204.9
"2009-06-26 00:36:00",1008374,12.49,241,0.639,0.074,19.85,108.4065,20.8,21.88,45.48,0,110.9,13.21,21.63,203.0
"2009-06-26 00:36:30",1008375,12.52,240.2,0.179,0.062,19.9,108.4034,20.79,21.82,44.45,0,110.9,13.21,21.62,202.2
"2009-06-26 00:37:00",1008376,13.04,240.6,0.503,0.286,19.88,108.3938,20.77,21.8,44.3,0,110.9,13.21,21.59,202.6
"2009-06-26 00:37:30",1008377,13.11,241.4,0.419,0.138,19.8,108.3733,20.72,21.78,44.4,0,110.9,13.21,21.54,203.4
"2009-06-26 00:38:00",1008378,13.47,241.5,0.384,0.122,19.77,108.3699,20.71,21.76,44.63,0,110.9,13.21,21.53,203.5
"2009-06-26 00:38:30",1008379,13.8,240.3,0.524,0.089,19.64,108.3699,20.71,21.73,44.87,0,110.9,13.21,21.53,202.3
"2009-06-26 00:39:00",1008380,14.04,240.6,0.559,0.21,19.82,108.3671,20.7,21.7,44.79,0,110.9,13.21,21.53,202.6
"2009-06-26 00:39:30",1008381,14.52,239.6,0.444,0.128,19.67,108.3488,20.65,21.7,44.89,0,110.9,13.21,21.48,201.6
"2009-06-26 00:40:00",1008382,14.7,240.4,0.855,0.179,19.48,108.3387,20.63,21.69,45.31,0,110.9,13.21,21.45,202.4
"2009-06-26 00:40:30",1008383,14.34,240.5,1.807,0.309,19.34,108.3361,20.62,21.66,46.24,0,110.8,13.21,21.45,202.5
"2009-06-26 00:41:00",1008384,14.3,240.4,1.332,0.261,19.51,108.3314,20.61,21.66,46.21,0,110.8,13.21,21.43,202.4
"2009-06-26 00:41:30",1008385,14.72,238.5,0.365,0.113,19.71,108.3041,20.54,21.62,45.46,0,110.9,13.21,21.36,200.5
"2009-06-26 00:42:00",1008386,14.73,239.5,0.304,0.1,19.76,108.3024,20.54,21.59,45.42,0,110.8,13.21,21.36,201.5
"2009-06-26 00:42:30",1008387,14.69,239.4,0.193,0.155,19.75,108.2968,20.52,21.56,45.49,0,110.8,13.22,21.34,201.4
"2009-06-26 00:43:00",1008388,14.4,238.9,0.714,0.071,19.9,108.2774,20.47,21.55,45.28,0,110.8,13.22,21.29,200.9
"2009-06-26 00:43:30",1008389,14.34,238.8,0.564,0.157,19.93,108.2698,20.45,21.52,44.72,0,110.8,13.22,21.28,200.8
"2009-06-26 00:44:00",1008390,14.67,239.1,0.489,0.103,19.58,108.2686,20.45,21.51,45.47,0,110.8,13.22,21.27,201.1
"2009-06-26 00:44:30",1008391,14.65,238.9,0.531,0.125,19.58,108.2686,20.45,21.49,45.57,0,110.8,13.22,21.27,200.9
"2009-06-26 00:45:00",1008392,14.67,237.9,0.6,0.091,19.47,108.2686,20.45,21.48,45.53,0,110.8,13.21,21.27,199.9
"2009-06-26 00:45:30",1008393,14.52,238.1,0.471,0.134,19.47,108.2702,20.45,21.47,45.8,0,110.8,13.21,21.28,200.1
"2009-06-26 00:46:00",1008394,14.29,237.2,0.574,0.09,19.68,108.2677,20.45,21.46,45.4,0,110.8,13.21,21.27,199.2
"2009-06-26 00:46:30",1008395,14.13,234.3,0.856,0.106,19.94,108.2557,20.42,21.45,44.86,0,110.8,13.21,21.24,196.3
"2009-06-26 00:47:00",1008396,14.16,234,0.774,0.108,19.81,108.2531,20.41,21.43,44.87,0,110.8,13.21,21.23,196.0
"2009-06-26 00:47:30",1008397,13.94,234.2,0.8,0.172,20.02,108.2569,20.42,21.43,45.06,0,110.8,13.21,21.24,196.2
"2009-06-26 00:48:00",1008398,13.78,233.6,0.588,0.105,20.93,108.2682,20.45,21.42,44.4,0,110.8,13.21,21.27,195.6
"2009-06-26 00:48:30",1008399,13.7,233.5,0.515,0.153,18.81,108.2863,20.49,21.42,44.91,0,110.8,13.21,21.32,195.5
"2009-06-26 00:49:00",1008400,13.8,233.2,0.741,0.28,21.25,108.2912,20.51,21.45,45.25,0,110.8,13.22,21.33,195.2
"2009-06-26 00:49:30",1008401,13.9,233.8,1.263,0.237,20.12,108.293,20.51,21.42,46.1,0,110.8,13.21,21.33,195.8
"2009-06-26 00:50:00",1008402,14.35,235,1.718,0.242,19.48,108.2892,20.5,21.43,46.47,0,110.8,13.22,21.33,197.0
"2009-06-26 00:50:30",1008403,14.5,237.1,1.41,0.132,19.48,108.2662,20.44,21.43,47.12,0,110.8,13.22,21.27,199.1
"2009-06-26 00:51:00",1008404,14.92,239.2,1.787,0.253,20.02,108.2617,20.43,21.41,47.45,0,110.8,13.22,21.25,201.2
"2009-06-26 00:51:30",1008405,14.89,239.1,1.692,0.304,-7.534,108.2384,20.37,21.39,47.28,0,110.8,13.22,21.19,201.1
"2009-06-26 00:52:00",1008406,15.06,240.2,1.974,0.24,-5.157,108.2252,20.34,21.36,47.2,0,110.8,13.22,21.16,202.2
"2009-06-26 00:52:30",1008407,14.78,240.5,1.769,0.165,20.51,108.1988,20.27,21.33,47.44,0,110.8,13.23,21.09,202.5
"2009-06-26 00:53:00",1008408,14.76,239,3.182,0.358,20.99,108.1918,20.25,21.3,46.93,0,110.8,13.23,21.07,201.0
"2009-06-26 00:53:30",1008409,14.54,237.2,2.062,0.363,18.1,108.1666,20.19,21.26,46.91,0,110.8,13.23,21.01,199.2
"2009-06-26 00:54:00",1008410,14.47,234.2,2.438,0.271,15.72,108.166,20.19,21.22,46.42,0,110.8,13.23,21.01,196.2
"2009-06-26 00:54:30",1008411,14.38,233.5,2.654,0.31,15.9,108.1498,20.14,21.2,46.45,0,110.8,13.23,20.97,195.5
"2009-06-26 00:55:00",1008412,14.26,232.8,1.461,0.19,13.26,108.1361,20.11,21.17,46.29,0,110.8,13.23,20.93,194.8
"2009-06-26 00:55:30",1008413,14.13,231.3,1.257,0.167,18.44,108.1364,20.11,21.13,46.13,0,110.8,13.23,20.93,193.3
"2009-06-26 00:56:00",1008414,14.22,230.7,0.907,0.139,2.514,108.1364,20.11,21.1,45.97,0,110.8,13.23,20.93,192.7
"2009-06-26 00:56:30",1008415,13.9,229.8,1.582,0.19,20.21,108.1364,20.11,21.1,45.88,0,110.8,13.23,20.93,191.8
"2009-06-26 00:57:00",1008416,13.74,231.4,1.614,0.294,7.378,108.1364,20.11,21.09,45.98,0,110.8,13.23,20.93,193.4
"2009-06-26 00:57:30",1008417,13.68,237.9,3.857,0.388,19.81,108.1364,20.11,21.08,46.3,0,110.8,13.23,20.93,199.9
"2009-06-26 00:58:00",1008418,14.28,243.3,2.016,0.367,-15.82,108.1364,20.11,21.08,47.17,0,110.8,13.23,20.93,205.3
"2009-06-26 00:58:30",1008419,14.55,245.1,1.279,0.342,1.401,108.1364,20.11,21.09,47.32,0,110.8,13.23,20.93,207.1
"2009-06-26 00:59:00",1008420,14.6,246.3,1.219,0.272,1.68,108.1341,20.1,21.07,47.31,0,110.8,13.23,20.93,208.3
"2009-06-26 00:59:30",1008421,14.04,246,1.427,0.201,4.118,108.1178,20.06,21.07,47.34,0,110.8,13.23,20.88,208.0
"2009-06-26 01:00:00",1008422,13.8,247,0.728,0.312,-20.13,108.1043,20.03,21.05,47.44,0,110.8,13.23,20.85,209.0
"2009-06-26 01:00:30",1008423,14.13,247.1,0.878,0.216,0.951,108.1026,20.02,21.04,48.15,0,110.8,13.23,20.84,209.1
"2009-06-26 01:01:00",1008424,14.18,248.8,1.277,0.244,3.208,108.0973,20.01,21.03,49.02,0,110.8,13.23,20.83,210.8
"2009-06-26 01:01:30",1008425,14.19,247.5,1.691,0.301,3.148,108.0717,19.94,21.02,49.59,0,110.8,13.23,20.77,209.5
"2009-06-26 01:02:00",1008426,14.29,248.2,1.76,0.376,16.57,108.0627,19.92,20.97,49.12,0,110.8,13.23,20.74,210.2
"2009-06-26 01:02:30",1008427,14.12,247,1.311,0.511,16.13,108.0354,19.85,20.93,49.14,0,110.8,13.23,20.67,209.0
"2009-06-26 01:03:00",1008428,14.56,246.3,1.226,0.314,19.87,108.0241,19.82,20.92,49.52,0,110.8,13.23,20.64,208.3
"2009-06-26 01:03:30",1008429,14.92,242.8,1.211,0.275,19.38,108.0017,19.76,20.89,49.83,0,110.8,13.23,20.58,204.8
"2009-06-26 01:04:00",1008430,14.89,239.6,1.162,0.258,23.38,107.976,19.7,20.83,49.99,0,110.8,13.23,20.52,201.6
"2009-06-26 01:04:30",1008431,14.78,238.2,0.701,0.146,21.7,107.9597,19.66,20.8,49.88,0,110.8,13.23,20.48,200.2
"2009-06-26 01:05:00",1008432,14.78,239.3,0.984,0.34,-17.45,107.9347,19.59,20.74,51.3,0,110.8,13.23,20.41,201.3
"2009-06-26 01:05:30",1008433,14.96,237.4,0.586,0.068,-38.54,107.9089,19.53,20.7,51.21,0,110.8,13.23,20.35,199.4
"2009-06-26 01:06:00",1008434,14.44,235.8,0.755,0.253,19.35,107.8951,19.49,20.64,51.07,0,110.8,13.23,20.31,197.8
"2009-06-26 01:06:30",1008435,14.49,234.4,1.02,0.175,19.22,107.8724,19.43,20.59,50.95,0,110.8,13.23,20.25,196.4
"2009-06-26 01:07:00",1008436,14.65,234.7,1.157,0.173,18.96,107.8425,19.36,20.55,52.44,0,110.8,13.24,20.18,196.7
"2009-06-26 01:07:30",1008437,14.9,232.9,1.28,0.301,15.58,107.8252,19.31,20.49,52.4,0,110.8,13.24,20.13,194.9
"2009-06-26 01:08:00",1008438,14.31,231.8,2.294,0.471,20.09,107.8023,19.25,20.43,54.25,0,110.8,13.24,20.07,193.8
"2009-06-26 01:08:30",1008439,13.43,231,1.493,0.221,18.71,107.7782,19.19,20.38,55.7,0,110.8,13.24,20.01,193.0
"2009-06-26 01:09:00",1008440,13.4,232.8,2.363,0.398,19.02,107.746,19.11,20.33,56.78,0,110.7,13.25,19.93,194.8
"2009-06-26 01:09:30",1008441,13.32,225.1,1.104,0.375,16.22,107.715,19.03,20.24,58.46,0,110.7,13.25,19.85,187.1
"2009-06-26 01:10:00",1008442,13.2,226.5,1.398,0.395,19.58,107.6737,18.92,20.16,59.68,0,110.8,13.25,19.74,188.5
"2009-06-26 01:10:30",1008443,13.73,227.4,1.366,0.424,-3.279,107.6308,18.81,20.06,60.3,0,110.7,13.25,19.63,189.4
"2009-06-26 01:11:00",1008444,13.61,230.4,2.91,0.687,2.073,107.5792,18.68,19.95,60.17,0,110.7,13.25,19.50,192.4
"2009-06-26 01:11:30",1008445,12.77,224,1.885,0.356,-7.459,107.5343,18.57,19.86,60.21,0,110.7,13.25,19.38,186.0
"2009-06-26 01:12:00",1008446,11.84,224.2,2.332,0.89,-5.09,107.4907,18.45,19.73,60.63,0,110.7,13.25,19.27,186.2
"2009-06-26 01:12:30",1008447,11.6,225.4,1.436,0.644,7.072,107.4518,18.35,19.63,61.77,0,110.7,13.25,19.17,187.4
"2009-06-26 01:13:00",1008448,11.63,221.5,2.896,0.609,12.6,107.4142,18.26,19.52,62.53,0,110.7,13.25,19.07,183.5
"2009-06-26 01:13:30",1008449,11.59,226.2,2.873,0.625,-15.78,107.3764,18.16,19.43,63.06,0,110.7,13.25,18.98,188.2
"2009-06-26 01:14:00",1008450,11.73,229.1,3.7,0.574,-2.827,107.3399,18.07,19.33,62.98,0,110.7,13.26,18.88,191.1
"2009-06-26 01:14:30",1008451,11.02,227.9,2.945,0.785,-11.07,107.3089,17.99,19.25,64.46,0,110.7,13.26,18.80,189.9
"2009-06-26 01:15:00",1008452,10.78,220.9,4.893,0.518,17.16,107.276,17.9,19.16,65.01,0,110.7,13.26,18.72,182.9
"2009-06-26 01:15:30",1008453,10.16,222.7,3.775,0.613,17.35,107.2515,17.84,19.09,65.81,0,110.7,13.26,18.65,184.7
"2009-06-26 01:16:00",1008454,10.77,221.4,4.794,0.618,4.364,107.2222,17.76,19.01,66.94,0,110.7,13.26,18.58,183.4
"2009-06-26 01:16:30",1008455,12.24,224.8,2.616,0.575,-0.447,107.1887,17.68,18.96,67.01,0,110.7,13.26,18.49,186.8
"2009-06-26 01:17:00",1008456,11.29,230.5,2.069,0.5,-21.22,107.1589,17.6,18.86,66.76,0,110.7,13.26,18.42,192.5
"2009-06-26 01:17:30",1008457,10.03,225.9,2.748,0.929,20.34,107.1285,17.52,18.79,67.3,0,110.7,13.26,18.34,187.9
"2009-06-26 01:18:00",1008458,9.28,225.1,2.746,0.808,17.25,107.1044,17.46,18.72,67.99,0,110.7,13.26,18.28,187.1
"2009-06-26 01:18:30",1008459,11.05,231,2.989,0.755,9.52,107.0808,17.4,18.65,68.82,0,110.7,13.26,18.22,193.0
"2009-06-26 01:19:00",1008460,11.74,230.8,4.371,1.318,9.5,107.0553,17.34,18.58,69.09,0,110.6,13.26,18.15,192.8
"2009-06-26 01:19:30",1008461,10.32,230.9,6.682,0.871,19.46,107.0345,17.28,18.53,69.35,0,110.6,13.26,18.10,192.9
"2009-06-26 01:20:00",1008462,12.34,241.2,3.99,1.053,20.12,107.0092,17.22,18.45,69.87,0,110.6,13.26,18.03,203.2
"2009-06-26 01:20:30",1008463,12.97,233,6.645,0.655,19.92,106.9823,17.15,18.37,69.95,0,110.6,13.26,17.96,195.0
"2009-06-26 01:21:00",1008464,13.91,238.2,1.787,0.462,-5.673,106.9563,17.08,18.3,70.13,0,110.6,13.26,17.89,200.2
"2009-06-26 01:21:30",1008465,14.58,237,3.579,0.442,14.43,106.9263,17.01,18.23,70.72,0,110.6,13.26,17.82,199.0
"2009-06-26 01:22:00",1008466,13.87,233.8,3.902,1.334,14.13,106.9006,16.94,18.17,71.23,0,110.6,13.26,17.75,195.8
"2009-06-26 01:22:30",1008467,12.66,234.9,5.815,1.346,15.12,106.8773,16.88,18.1,72.33,0,110.6,13.26,17.69,196.9
"2009-06-26 01:23:00",1008468,15.56,236,3.799,0.663,14.56,106.8507,16.81,18.14,70.68,0,110.6,13.26,17.62,198.0
"2009-06-26 01:23:30",1008469,16.94,238.4,6.629,1.114,-12.96,106.8252,16.75,17.96,66.23,0,110.6,13.22,17.56,200.4
"2009-06-26 01:24:00",1008470,17.12,241.4,7.631,1.383,6.265,106.8243,16.74,18.06,66.71,0,110.6,13.22,17.56,203.4
"2009-06-26 01:24:30",1008471,16.38,235.3,4.762,1.461,12.46,106.8243,16.74,18,65.74,0,110.6,13.23,17.56,197.3
"2009-06-26 01:25:00",1008472,15.96,228.6,4.155,0.891,-1.958,106.8254,16.75,17.82,65.06,0,110.6,13.23,17.56,190.6
"2009-06-26 01:25:30",1008473,15.53,229.4,1.942,0.211,20.66,106.8449,16.8,17.8,65.12,0,110.6,13.27,17.61,191.4
"2009-06-26 01:26:00",1008474,15.51,231,1.062,0.237,19.99,106.8581,16.83,17.84,65.44,0,110.6,13.27,17.64,193.0
"2009-06-26 01:26:30",1008475,15.61,229.9,0.902,0.188,18.03,106.8761,16.88,17.85,65.23,0,110.6,13.27,17.69,191.9
"2009-06-26 01:27:00",1008476,15.37,231.5,1.255,0.21,15.64,106.891,16.92,17.87,65.3,0,110.6,13.27,17.73,193.5
"2009-06-26 01:27:30",1008477,15.49,233.2,0.737,0.177,12.33,106.8922,16.92,17.9,66.28,0,110.6,13.27,17.73,195.2
"2009-06-26 01:28:00",1008478,15.08,232.9,3.053,0.234,14.53,106.9068,16.96,18.04,66.21,0,110.6,13.27,17.77,194.9
"2009-06-26 01:28:30",1008479,16.5,239.1,7.033,1.463,16.75,106.9231,17,17.99,66.33,0,110.6,13.23,17.81,201.1
"2009-06-26 01:29:00",1008480,16.14,238.3,6.532,1.329,21.58,106.9257,17,18.16,66.04,0,110.6,13.23,17.82,200.3
"2009-06-26 01:29:30",1008481,14.77,231.4,0.788,0.335,19.63,106.9266,17.01,17.98,65.08,0,110.6,13.27,17.82,193.4
"2009-06-26 01:30:00",1008482,15.59,233.2,0.787,0.202,16.89,106.9299,17.02,17.97,65.87,0,110.6,13.27,17.83,195.2
"2009-06-26 01:30:30",1008483,15.76,233.2,0.909,0.217,14.78,106.9362,17.03,17.99,65.99,0,110.6,13.27,17.84,195.2
"2009-06-26 01:31:00",1008484,15.02,231.1,1.55,0.284,21.2,106.9449,17.05,18,65.63,0,110.5,13.27,17.87,193.1
"2009-06-26 01:31:30",1008485,15.87,232.2,0.883,0.204,18.21,106.951,17.07,17.98,65.28,0,110.5,13.28,17.88,194.2
"2009-06-26 01:32:00",1008486,16.24,232.1,0.78,0.228,19.75,106.9522,17.07,17.99,65.49,0,110.5,13.28,17.88,194.1
"2009-06-26 01:32:30",1008487,15.88,233.3,0.552,0.176,19.04,106.9531,17.07,18.01,65.56,0,110.5,13.28,17.89,195.3
"2009-06-26 01:33:00",1008488,15.75,232.2,0.639,0.11,19.54,106.9552,17.08,18.01,65.28,0,110.5,13.28,17.89,194.2
"2009-06-26 01:33:30",1008489,15.65,230.1,0.921,0.269,8.02,106.957,17.08,18.02,64.84,0,110.5,13.28,17.90,192.1
"2009-06-26 01:34:00",1008490,15.85,228.4,2.11,0.221,10.24,106.9606,17.09,18.01,64.45,0,110.5,13.28,17.91,190.4
"2009-06-26 01:34:30",1008491,16.44,224.8,1.122,0.399,17.84,106.9717,17.12,18.01,63.54,0,110.5,13.28,17.93,186.8
"2009-06-26 01:35:00",1008492,16.89,223,0.645,0.266,19.45,106.9911,17.17,18.04,62.94,0,110.5,13.28,17.98,185.0
"2009-06-26 01:35:30",1008493,17.21,221.9,1.183,0.228,-2.597,106.9973,17.19,18.06,62.66,0,110.5,13.28,18.00,183.9
"2009-06-26 01:36:00",1008494,16.89,223.1,1.272,0.322,10.95,107.024,17.26,18.1,62.5,0,110.5,13.28,18.07,185.1
"2009-06-26 01:36:30",1008495,16.94,223.1,0.517,0.155,-18.36,107.0373,17.29,18.14,62.6,0,110.5,13.28,18.10,185.1
"2009-06-26 01:37:00",1008496,17.18,223.3,0.926,0.214,-9.69,107.0629,17.36,18.2,62.42,0,110.5,13.27,18.17,185.3
"2009-06-26 01:37:30",1008497,16.82,223.5,0.883,0.309,-28.56,107.0781,17.4,18.26,62.26,0,110.5,13.28,18.21,185.5
"2009-06-26 01:38:00",1008498,16.58,223,0.872,0.145,1.156,107.097,17.44,18.3,62.05,0,110.5,13.27,18.26,185.0
"2009-06-26 01:38:30",1008499,16.7,223.8,0.758,0.112,0.416,107.1122,17.48,18.33,61.93,0,110.5,13.27,18.30,185.8
"2009-06-26 01:39:00",1008500,16.56,224.2,1.049,0.249,18.46,107.1308,17.53,18.37,61.8,0,110.5,13.28,18.34,186.2
"2009-06-26 01:39:30",1008501,16.47,221.9,0.678,0.194,18.6,107.1336,17.54,18.41,61.45,0,110.5,13.28,18.35,183.9
"2009-06-26 01:40:00",1008502,16.33,221.3,0.765,0.162,21.96,107.1592,17.6,18.45,61.14,0,110.5,13.28,18.42,183.3
"2009-06-26 01:40:30",1008503,16.46,222.1,4.952,0.888,19.2,107.1646,17.62,18.48,60.9,0,110.5,13.25,18.43,184.1
"2009-06-26 01:41:00",1008504,16.07,219.9,2.681,0.545,20.46,107.1736,17.64,18.66,60.99,0,110.5,13.25,18.45,181.9
"2009-06-26 01:41:30",1008505,16.86,222.8,7.707,1.617,22.14,107.195,17.7,18.57,61,0,110.5,13.25,18.51,184.8
"2009-06-26 01:42:00",1008506,16.36,223.1,7.215,1.304,23.03,107.1984,17.7,18.75,61.55,0,110.5,13.25,18.52,185.1
"2009-06-26 01:42:30",1008507,15.9,221.3,7.41,1.349,19.14,107.1984,17.7,18.8,61.72,0,110.5,13.25,18.52,183.3
"2009-06-26 01:43:00",1008508,15.4,218.6,5.695,1.313,18.22,107.1984,17.7,18.61,61.44,0,110.5,13.25,18.52,180.6
"2009-06-26 01:43:30",1008509,14.8,217.1,0.821,0.234,13.7,107.1987,17.7,18.62,61.38,0,110.5,13.29,18.52,179.1
"2009-06-26 01:44:00",1008510,15.73,223.9,7.291,1.373,-5.131,107.1993,17.71,18.78,61.39,0,110.5,13.25,18.52,185.9
"2009-06-26 01:44:30",1008511,15.53,221.2,6.432,1.123,-10.01,107.2011,17.71,18.8,61.61,0,110.5,13.25,18.52,183.2
"2009-06-26 01:45:00",1008512,14.53,217.6,2.664,0.796,-14.68,107.2065,17.72,18.64,61.55,0,110.5,13.25,18.54,179.6
"2009-06-26 01:45:30",1008513,13.8,216.1,1.057,0.214,12.8,107.2098,17.73,18.67,61.65,0,110.5,13.29,18.55,178.1
"2009-06-26 01:46:00",1008514,13.74,217.2,0.572,0.181,1.602,107.2102,17.73,18.68,61.65,0,110.5,13.29,18.55,179.2
"2009-06-26 01:46:30",1008515,13.66,218.2,1.929,0.444,-6.095,107.2153,17.75,18.68,61.44,0,110.5,13.29,18.56,180.2
"2009-06-26 01:47:00",1008516,13.61,217.7,1.074,0.144,-14.48,107.2189,17.76,18.68,61.13,0,110.5,13.29,18.57,179.7